[[{"header":{"parameterUnit":"m.s-1","parameterCategory":1,"la1":30.2992,"la2":30.254,"lo1":-89.0895,"lo2":-89.0443,"dy":0.0025,"dx":0.0025,"nx":19,"ny":19,"refTime":"2026-03-20T03:00:00:Z","depth":0,"parameterNumber":2,"parameterNumberName":"U-component_of_WINDS"},"data":[0,0,0,1.2934,1.2937,1.3079,1.3079,1.3266,1.3268,0,0,0,0,0,0,0,0,0,0,0,1.2897,1.2898,1.2934,1.2938,1.3078,1.3079,1.3266,1.3268,0,0,0,0,0,0,0,0,0,0,0,1.2896,1.2898,1.29,1.2938,1.3078,1.3079,1.3266,1.3157,0,0,0,0,0,0,0,0,0,0,1.3019,1.2988,1.2897,1.29,1.2939,1.3078,1.3079,1.3151,1.3164,1.3206,0,1.3244,0,1.3259,1.3281,1.3282,0,0,0,1.2935,1.2978,1.3012,1.29,1.294,1.3078,1.3014,1.3158,1.3172,1.3222,1.3246,1.3253,1.3262,1.3282,1.3283,1.3535,1.3536,0,0,1.2927,1.2924,1.3003,1.3021,1.3,1.301,1.3019,1.3166,1.3193,1.3247,1.3257,1.3265,1.3284,1.3285,1.3534,1.3535,0,0,0,1.2907,1.2919,1.295,1.3014,1.3039,1.3014,1.3024,1.3187,1.3197,1.3259,1.3267,1.3285,1.3287,1.3532,1.3534,1.3597,0,0,0,1.2902,1.2907,1.2946,1.2946,1.3036,1.3114,1.3041,1.3186,1.3203,1.3266,1.3285,1.3289,1.3531,1.3533,1.3593,1.3628,0,0,0,1.2886,1.2905,1.2927,1.2946,1.3006,1.3112,1.3131,1.319,1.3208,1.3282,1.329,1.353,1.3533,1.3588,1.3621,1.3694,0,0,0,1.2869,1.2981,1.2928,1.3057,1.3005,1.315,1.313,1.3238,1.3308,1.3286,1.3531,1.3534,1.3587,1.3616,1.3689,1.3755,1.3782,0,0,1.3009,1.2998,1.3074,1.3031,1.3184,1.3128,1.3292,1.3358,1.3368,1.3479,1.3485,1.3594,1.362,1.3693,1.3934,1.3956,0,0,0,1.3118,1.3172,1.3214,1.3281,1.3334,1.3383,1.3425,1.345,1.3544,1.3424,1.364,1.3656,1.3698,1.373,1.3748,1.3785,1.3548,1.3548,1.3548,1.3314,1.3319,1.3445,1.3468,1.3533,1.3575,1.3629,1.3669,1.3656,1.3707,1.374,1.3886,1.3923,1.3937,1.3975,1.3775,1.3775,1.3775,1.3776,1.3521,1.3599,1.3578,1.3693,1.3699,1.3795,1.384,1.3827,1.3918,1.3861,1.3899,1.3837,1.396,1.3994,1.378,1.378,1.3779,1.3778,1.3778,1.3651,1.3689,1.3717,1.3814,1.3889,1.3908,1.3996,1.3997,1.3999,1.4037,1.4072,1.4071,1.4071,1.4053,1.4054,1.4054,1.4055,1.4055,1.4055,1.3775,1.3804,1.3878,1.3944,1.3987,1.4044,1.4088,1.413,1.4178,1.4172,1.4172,1.4154,1.3971,1.3925,1.4063,1.4062,1.4061,1.406,1.406,1.3984,1.3937,1.4051,1.4094,1.4172,1.4246,1.4246,1.4333,1.4368,1.4412,1.4386,1.425,1.4238,1.4224,1.4186,1.4383,1.4383,1.4384,1.4384,1.4094,1.4088,1.4205,1.4274,1.4342,1.4354,1.4484,1.4518,1.4546,1.4569,1.454,1.449,1.4475,1.4473,1.4453,1.4418,1.4669,1.467,1.467,1.4223,1.4224,1.4334,1.4361,1.4421,1.4474,1.4596,1.4676,1.4698,1.4682,1.4586,1.4574,1.4493,1.4466,1.4448,1.4417,1.4353,0,0]},{"header":{"parameterUnit":"m.s-1","parameterCategory":1,"la1":30.2992,"la2":30.254,"lo1":-89.0895,"lo2":-89.0443,"dy":0.0025,"dx":0.0025,"nx":19,"ny":19,"refTime":"2026-03-20T03:00:00:Z","depth":0,"parameterNumber":3,"parameterNumberName":"V-component_of_WINDS"},"data":[0,0,0,-1.6904,-1.6906,-1.6989,-1.699,-1.709,-1.709,0,0,0,0,0,0,0,0,0,0,0,-1.6875,-1.6876,-1.6904,-1.6906,-1.6989,-1.699,-1.709,-1.7091,0,0,0,0,0,0,0,0,0,0,0,-1.6875,-1.6876,-1.6876,-1.6906,-1.6989,-1.699,-1.7089,-1.7029,0,0,0,0,0,0,0,0,0,0,-1.6949,-1.6918,-1.6876,-1.6876,-1.6907,-1.6989,-1.699,-1.7026,-1.7033,-1.7049,0,-1.7062,0,-1.7078,-1.7097,-1.7097,0,0,0,-1.6909,-1.6913,-1.6939,-1.6876,-1.6907,-1.6989,-1.6953,-1.703,-1.7037,-1.7058,-1.7064,-1.7068,-1.708,-1.7097,-1.7098,-1.7183,-1.7183,0,0,-1.6904,-1.6888,-1.6934,-1.6944,-1.693,-1.695,-1.6955,-1.7034,-1.704,-1.7064,-1.707,-1.7081,-1.7098,-1.7099,-1.7183,-1.7183,0,0,0,-1.6889,-1.6885,-1.6909,-1.6939,-1.6955,-1.6952,-1.6958,-1.7037,-1.7046,-1.7072,-1.7083,-1.7099,-1.71,-1.7182,-1.7183,-1.7178,0,0,0,-1.6887,-1.6876,-1.6907,-1.6898,-1.6953,-1.6997,-1.6958,-1.704,-1.705,-1.7082,-1.7099,-1.7101,-1.7182,-1.7183,-1.7178,-1.7179,0,0,0,-1.6871,-1.6874,-1.6885,-1.6897,-1.6932,-1.6996,-1.701,-1.7043,-1.7057,-1.7097,-1.7101,-1.7182,-1.7182,-1.7178,-1.7178,-1.7196,0,0,0,-1.685,-1.688,-1.6884,-1.6922,-1.6931,-1.6993,-1.7009,-1.7056,-1.7091,-1.7099,-1.7182,-1.7183,-1.7177,-1.7178,-1.7195,-1.7207,-1.721,0,0,-1.6878,-1.6882,-1.6906,-1.6912,-1.6969,-1.6981,-1.7038,-1.7085,-1.7104,-1.7156,-1.7158,-1.7178,-1.7178,-1.7196,-1.7238,-1.7241,0,0,0,-1.6909,-1.6925,-1.6944,-1.6976,-1.7013,-1.7045,-1.7086,-1.7104,-1.7148,-1.7127,-1.7191,-1.7191,-1.7202,-1.7208,-1.721,-1.7221,-1.7185,-1.7185,-1.7185,-1.6924,-1.6947,-1.6987,-1.7021,-1.7052,-1.7094,-1.7122,-1.7153,-1.7167,-1.7182,-1.7196,-1.7219,-1.7226,-1.7228,-1.7238,-1.7206,-1.7206,-1.7206,-1.7206,-1.6966,-1.6992,-1.7012,-1.7058,-1.7082,-1.7121,-1.7164,-1.7173,-1.7213,-1.721,-1.7221,-1.7214,-1.723,-1.724,-1.7206,-1.7206,-1.7206,-1.7206,-1.7206,-1.6977,-1.6993,-1.7015,-1.7065,-1.71,-1.7134,-1.7172,-1.7193,-1.7214,-1.7225,-1.7243,-1.7243,-1.7245,-1.7232,-1.7232,-1.7232,-1.7232,-1.7232,-1.7233,-1.6979,-1.7003,-1.7032,-1.7075,-1.7099,-1.7133,-1.7177,-1.7201,-1.7234,-1.7247,-1.7247,-1.7259,-1.7228,-1.7219,-1.7234,-1.7234,-1.7233,-1.7233,-1.7233,-1.701,-1.7007,-1.7051,-1.7075,-1.7128,-1.7162,-1.719,-1.7238,-1.7261,-1.7279,-1.729,-1.7264,-1.727,-1.7268,-1.726,-1.7286,-1.7286,-1.7286,-1.7286,-1.7018,-1.7024,-1.7074,-1.7111,-1.7151,-1.7181,-1.7231,-1.7266,-1.7301,-1.7318,-1.7318,-1.731,-1.7307,-1.7315,-1.7312,-1.7305,-1.7341,-1.7341,-1.7342,-1.7039,-1.7049,-1.7087,-1.7122,-1.7165,-1.7202,-1.7249,-1.7292,-1.7332,-1.7344,-1.733,-1.7328,-1.7316,-1.7311,-1.7321,-1.7317,-1.7305,0,0]}]]